KINEIS-3A

Last updated on Thu Oct 23 2025 00:02:49 GMT+0000 (Coordinated Universal Time)

1 61223U 24172D 25295.23511442 .00003967 00000+0 63399-3 0 9992 2 61223 98.0290 23.0611 0003110 121.4158 238.7354 14.72395623 57763
UTC large
Height (km)
Speed (km/s)
/
Latitude / Longitude
Inclination (degrees)
Orbital Period (minutes)
Azimuth
Elevation
Range (km)
Doppler Factor

Next 0 passes for location: London (51.5072 / 0.1276)

Sorry there are no passes over London.